START_TIME,STEP,MOV.,M15,t_acc.,M20,t_acc.
1989-08-27T09:00:44.470 ,4,0,0.,24.0,0.,24.0
1989-08-27T09:01:08.460 ,5,1,0.,24.0,0.,24.0
1989-08-27T09:01:32.460 ,5,0,0.,24.0,0.,24.0
1989-08-27T09:01:56.460 ,6,1,0.,24.0,0.,24.0
1989-08-27T09:02:20.460 ,6,0,0.,24.0,0.,24.0
1989-08-27T09:02:44.460 ,7,1,0.,24.0,0.,24.0
1989-08-27T09:03:08.460 ,7,0,0.,24.0,0.,24.0
1989-08-27T09:03:32.460 ,7,1,0.,24.0,0.,24.0
1989-08-27T09:03:56.460 ,7,0,0.,24.0,0.,24.0
1989-08-27T09:04:20.460 ,6,1,0.,24.0,0.,24.0
1989-08-27T09:04:44.460 ,6,0,0.,24.0,0.,24.0
1989-08-27T09:05:08.460 ,5,1,0.,24.0,0.,24.0
1989-08-27T09:05:32.460 ,5,0,0.,24.0,0.,24.0
1989-08-27T09:05:56.460 ,4,1,0.,24.0,0.,24.0
1989-08-27T09:06:20.460 ,4,0,0.,24.0,0.,24.0
1989-08-27T09:06:44.460 ,3,1,0.,24.0,0.,24.0
1989-08-27T09:07:08.460 ,3,0,0.,24.0,0.,24.0
1989-08-27T09:07:32.460 ,2,1,0.,24.0,0.,24.0
1989-08-27T09:07:56.460 ,2,0,0.,24.0,0.,24.0
1989-08-27T09:08:20.460 ,1,1,0.,24.0,0.,24.0
1989-08-27T09:08:44.460 ,1,0,0.,24.0,0.,24.0
1989-08-27T09:09:08.460 ,0,1,0.,24.0,0.,24.0
1989-08-27T09:09:32.460 ,0,0,0.,24.0,0.,24.0
1989-08-27T09:09:56.460 ,0,1,0.,24.0,0.,24.0
1989-08-27T09:10:20.460 ,0,0,0.,24.0,0.,24.0
1989-08-27T09:10:44.460 ,1,1,0.,24.0,0.,24.0
1989-08-27T09:11:08.460 ,1,0,0.,24.0,0.,24.0
1989-08-27T09:11:32.460 ,2,1,0.,24.0,0.,24.0
1989-08-27T09:11:56.460 ,2,0,0.,24.0,0.,24.0
1989-08-27T09:12:20.460 ,3,1,0.,24.0,0.,24.0
1989-08-27T09:12:44.460 ,3,0,0.,24.0,0.,24.0
1989-08-27T09:13:08.460 ,4,1,0.,24.0,0.,24.0
1989-08-27T09:13:32.460 ,4,0,0.,24.0,0.,24.0
1989-08-27T09:13:56.460 ,5,1,0.,24.0,0.,24.0
1989-08-27T09:14:20.460 ,5,0,0.,24.0,0.,24.0
1989-08-27T09:14:44.460 ,6,1,0.,24.0,0.,24.0
1989-08-27T09:15:08.460 ,6,0,0.,24.0,0.,24.0
1989-08-27T09:15:32.460 ,7,1,0.,24.0,0.,24.0
1989-08-27T09:15:56.460 ,7,0,0.,24.0,0.,24.0
1989-08-27T09:16:20.460 ,7,1,0.,24.0,0.,24.0
1989-08-27T09:16:44.460 ,7,0,0.,24.0,0.,24.0
1989-08-27T09:17:08.460 ,6,1,0.,24.0,0.,24.0
1989-08-27T09:17:32.460 ,6,0,0.,24.0,0.,24.0
1989-08-27T09:17:56.460 ,5,1,0.,24.0,0.,24.0
1989-08-27T09:18:20.460 ,5,0,0.,24.0,0.,24.0
1989-08-27T09:18:44.460 ,4,1,0.,24.0,0.,24.0
1989-08-27T09:19:08.460 ,4,0,0.,24.0,0.,24.0
1989-08-27T09:19:32.460 ,3,1,0.,24.0,0.,24.0
1989-08-27T09:19:56.460 ,3,0,0.,24.0,0.,24.0
1989-08-27T09:20:20.460 ,2,1,0.,24.0,0.,24.0
1989-08-27T09:20:44.460 ,2,0,0.,24.0,0.,24.0
1989-08-27T09:21:08.460 ,1,1,0.,24.0,0.,24.0
1989-08-27T09:21:32.460 ,1,0,0.,24.0,0.,24.0
1989-08-27T09:21:56.460 ,0,1,0.,24.0,0.,24.0
1989-08-27T09:22:20.460 ,0,0,0.,24.0,0.,24.0
1989-08-27T09:22:44.460 ,0,1,0.,24.0,0.,24.0
1989-08-27T09:23:08.460 ,0,0,0.,24.0,0.,24.0
1989-08-27T09:23:32.460 ,1,1,0.,24.0,0.,24.0
1989-08-27T09:23:56.460 ,1,0,0.,24.0,0.,24.0
1989-08-27T09:24:20.460 ,2,1,0.,24.0,0.,24.0
1989-08-27T09:24:44.460 ,2,0,0.,24.0,0.,24.0
1989-08-27T09:25:08.460 ,3,1,0.,24.0,0.,24.0
1989-08-27T09:25:32.460 ,3,0,0.,24.0,0.,24.0
1989-08-27T09:25:56.460 ,4,1,0.,24.0,0.,24.0
1989-08-27T09:26:20.460 ,4,0,0.,24.0,0.,24.0
1989-08-27T09:26:44.460 ,5,1,0.,24.0,0.,24.0
1989-08-27T09:27:08.460 ,5,0,0.,24.0,0.,24.0
1989-08-27T09:27:32.460 ,6,1,0.,24.0,0.,24.0
1989-08-27T09:27:56.460 ,6,0,0.,24.0,0.,24.0
1989-08-27T09:28:20.460 ,7,1,0.,24.0,0.,24.0
1989-08-27T09:28:44.460 ,7,0,0.,24.0,0.,24.0
1989-08-27T09:29:08.460 ,7,1,0.,24.0,0.,24.0
1989-08-27T09:29:32.460 ,7,0,0.,24.0,0.,24.0
1989-08-27T09:29:56.460 ,6,1,0.,24.0,0.,24.0
1989-08-27T09:30:20.460 ,6,0,0.,24.0,0.,24.0
1989-08-27T09:30:44.460 ,5,1,0.,24.0,0.,24.0
1989-08-27T09:31:08.460 ,5,0,0.,24.0,0.,24.0
1989-08-27T09:31:32.460 ,4,1,0.,24.0,0.,24.0
1989-08-27T09:31:56.460 ,4,0,0.,24.0,0.,24.0
1989-08-27T09:32:20.460 ,3,1,0.,24.0,0.,24.0
1989-08-27T09:32:44.460 ,3,0,0.,24.0,0.,24.0
1989-08-27T09:33:08.460 ,2,1,0.,24.0,0.,24.0
1989-08-27T09:33:32.460 ,2,0,0.,24.0,0.,24.0
1989-08-27T09:33:56.460 ,1,1,0.,24.0,0.,24.0
1989-08-27T09:34:20.460 ,1,0,0.,24.0,0.,24.0
1989-08-27T09:34:44.460 ,0,1,0.,24.0,0.,24.0
1989-08-27T09:35:08.460 ,0,0,0.,24.0,0.,24.0
1989-08-27T09:35:32.460 ,0,1,0.,24.0,0.,24.0
1989-08-27T09:35:56.460 ,0,0,0.,24.0,0.,24.0
1989-08-27T09:36:20.460 ,1,1,0.,24.0,0.,24.0
1989-08-27T09:36:44.460 ,1,0,0.,24.0,0.,24.0
1989-08-27T09:37:08.460 ,2,1,0.,24.0,0.,24.0
1989-08-27T09:37:32.460 ,2,0,0.,24.0,0.,24.0
1989-08-27T09:37:56.460 ,3,1,0.,24.0,0.,24.0
1989-08-27T09:38:20.460 ,3,0,0.,24.0,0.,24.0
1989-08-27T09:38:44.460 ,4,1,0.,24.0,0.,24.0
1989-08-27T09:39:08.460 ,4,0,0.,24.0,0.,24.0
1989-08-27T09:39:32.460 ,5,1,0.,24.0,0.,24.0
1989-08-27T09:39:56.460 ,5,0,0.,24.0,0.,24.0
1989-08-27T09:40:20.460 ,6,1,0.,24.0,0.,24.0
1989-08-27T09:40:44.460 ,6,0,0.,24.0,0.,24.0
1989-08-27T09:41:08.460 ,7,1,0.,24.0,0.,24.0
1989-08-27T09:41:32.460 ,7,0,0.,24.0,0.,24.0
1989-08-27T09:41:56.460 ,7,1,0.,24.0,0.,24.0
1989-08-27T09:42:20.460 ,7,0,0.,24.0,0.,24.0
1989-08-27T09:42:44.460 ,6,1,0.,24.0,0.,24.0
1989-08-27T09:43:08.460 ,6,0,0.,24.0,0.,24.0
1989-08-27T09:43:32.460 ,5,1,0.,24.0,0.,24.0
1989-08-27T09:43:56.460 ,5,0,0.,24.0,0.,24.0
1989-08-27T09:44:20.460 ,4,1,0.,24.0,0.,24.0
1989-08-27T09:44:44.460 ,4,0,0.,24.0,0.,24.0
1989-08-27T09:45:08.460 ,3,1,0.,24.0,0.,24.0
1989-08-27T09:45:32.460 ,3,0,0.,24.0,0.,24.0
1989-08-27T09:45:56.460 ,2,1,0.,24.0,0.,24.0
1989-08-27T09:46:20.460 ,2,0,0.,24.0,0.,24.0
1989-08-27T09:46:44.460 ,1,1,0.,24.0,0.,24.0
1989-08-27T09:47:08.460 ,1,0,0.,24.0,0.,24.0
1989-08-27T09:47:32.460 ,0,1,0.,24.0,0.,24.0
1989-08-27T09:47:56.460 ,0,0,0.,24.0,0.,24.0
1989-08-27T09:48:20.460 ,0,1,0.,24.0,0.,24.0
1989-08-27T09:48:44.460 ,0,0,0.,24.0,0.,24.0
1989-08-27T09:49:08.460 ,1,1,0.,24.0,0.,24.0
1989-08-27T09:49:32.460 ,1,0,0.,24.0,0.,24.0
1989-08-27T09:49:56.460 ,2,1,0.,24.0,0.,24.0
1989-08-27T09:50:20.460 ,2,0,0.,24.0,0.,24.0
1989-08-27T09:50:44.460 ,3,1,0.,24.0,0.,24.0
1989-08-27T09:51:08.460 ,3,0,0.,24.0,0.,24.0
1989-08-27T09:51:32.460 ,4,1,0.,24.0,0.,24.0
1989-08-27T09:51:56.460 ,4,0,0.,24.0,0.,24.0
1989-08-27T09:52:20.460 ,5,1,0.,24.0,0.,24.0
1989-08-27T09:52:44.460 ,5,0,0.,24.0,0.,24.0
1989-08-27T09:53:08.460 ,6,1,0.,24.0,0.,24.0
1989-08-27T09:53:32.460 ,6,0,0.,24.0,0.,24.0
1989-08-27T09:53:56.460 ,7,1,0.,24.0,0.,24.0
1989-08-27T09:54:20.460 ,7,0,0.,24.0,0.,24.0
1989-08-27T09:54:44.460 ,7,1,0.,24.0,0.,24.0
1989-08-27T09:55:08.460 ,7,0,0.,24.0,0.,24.0
1989-08-27T09:55:32.460 ,6,1,0.,24.0,0.,24.0
1989-08-27T09:55:56.460 ,6,0,0.,24.0,0.,24.0
1989-08-27T09:56:20.460 ,5,1,0.,24.0,0.,24.0
1989-08-27T09:56:44.460 ,5,0,0.,24.0,0.,24.0
1989-08-27T09:57:08.460 ,4,1,0.,24.0,0.,24.0
1989-08-27T09:57:32.460 ,4,0,0.,24.0,0.,24.0
1989-08-27T09:57:56.460 ,3,1,0.,24.0,0.,24.0
1989-08-27T09:58:20.460 ,0,0,0.,24.0,0.,24.0
1989-08-27T10:01:09.660 ,0,0,0.,24.0,0.,24.0
1989-08-27T10:01:32.460 ,0,0,0.,24.0,0.,24.0
1989-08-27T10:01:56.460 ,1,1,0.,24.0,0.,24.0
1989-08-27T10:02:20.460 ,1,0,0.,24.0,0.,24.0
1989-08-27T10:02:44.460 ,2,1,0.,24.0,0.,24.0
1989-08-27T10:03:08.460 ,2,0,0.,24.0,0.,24.0
1989-08-27T10:03:32.460 ,3,1,0.,24.0,0.,24.0
1989-08-27T10:03:56.460 ,3,0,0.,24.0,0.,24.0
1989-08-27T10:04:20.460 ,4,1,0.,24.0,0.,24.0
1989-08-27T10:04:44.460 ,4,0,0.,24.0,0.,24.0
1989-08-27T10:05:08.460 ,5,1,0.,24.0,0.,24.0
1989-08-27T10:05:32.460 ,5,0,0.,24.0,0.,24.0
1989-08-27T10:05:56.460 ,6,1,0.,24.0,0.,24.0
1989-08-27T10:06:20.460 ,6,0,0.,24.0,0.,24.0
1989-08-27T10:06:44.460 ,7,1,0.,24.0,0.,24.0
1989-08-27T10:07:08.460 ,7,0,0.,24.0,0.,24.0
1989-08-27T10:07:32.460 ,7,1,0.,24.0,0.,24.0
1989-08-27T10:07:56.460 ,7,0,0.,24.0,0.,24.0
1989-08-27T10:08:20.460 ,6,1,0.,24.0,0.,24.0
1989-08-27T10:08:44.460 ,6,0,0.,24.0,0.,24.0
1989-08-27T10:09:08.460 ,5,1,0.,24.0,0.,24.0
1989-08-27T10:09:32.460 ,5,0,0.,24.0,0.,24.0
1989-08-27T10:09:56.460 ,4,1,0.,24.0,0.,24.0
1989-08-27T10:10:20.460 ,4,0,0.,24.0,0.,24.0
1989-08-27T10:10:44.460 ,3,1,0.,24.0,0.,24.0
1989-08-27T10:11:08.460 ,3,0,0.,24.0,0.,24.0
1989-08-27T10:11:32.460 ,2,1,0.,24.0,0.,24.0
1989-08-27T10:11:56.460 ,2,0,0.,24.0,0.,24.0
1989-08-27T10:12:20.460 ,1,1,0.,24.0,0.,24.0
1989-08-27T10:12:44.460 ,1,0,0.,24.0,0.,24.0
1989-08-27T10:13:08.460 ,0,1,0.,24.0,0.,24.0
1989-08-27T10:13:32.460 ,0,0,0.,24.0,0.,24.0
1989-08-27T10:13:56.460 ,0,1,0.,24.0,0.,24.0
1989-08-27T10:14:20.460 ,0,0,0.,24.0,0.,24.0
1989-08-27T10:14:44.460 ,1,1,0.,24.0,0.,24.0
1989-08-27T10:15:08.460 ,1,0,0.,24.0,0.,24.0
1989-08-27T10:15:32.460 ,2,1,0.,24.0,0.,24.0
1989-08-27T10:15:56.460 ,2,0,0.,24.0,0.,24.0
1989-08-27T10:16:20.460 ,3,1,0.,24.0,0.,24.0
1989-08-27T10:16:44.460 ,3,0,0.,24.0,0.,24.0
1989-08-27T10:17:08.460 ,4,1,0.,24.0,0.,24.0
1989-08-27T10:17:32.460 ,4,0,0.,24.0,0.,24.0
1989-08-27T10:17:56.460 ,5,1,0.,24.0,0.,24.0
1989-08-27T10:18:20.460 ,5,0,0.,24.0,0.,24.0
1989-08-27T10:18:44.460 ,6,1,0.,24.0,0.,24.0
1989-08-27T10:19:08.460 ,6,0,0.,24.0,0.,24.0
1989-08-27T10:19:32.460 ,7,1,0.,24.0,0.,24.0
1989-08-27T10:19:56.460 ,7,0,0.,24.0,0.,24.0
1989-08-27T10:20:20.460 ,7,1,0.,24.0,0.,24.0
1989-08-27T10:20:44.460 ,7,0,0.,24.0,0.,24.0
1989-08-27T10:21:08.460 ,6,1,0.,24.0,0.,24.0
1989-08-27T10:21:32.460 ,6,0,0.,24.0,0.,24.0
1989-08-27T10:21:56.460 ,5,1,0.,24.0,0.,24.0
1989-08-27T10:22:20.460 ,5,0,0.,24.0,0.,24.0
1989-08-27T10:22:44.460 ,4,1,0.,24.0,0.,24.0
1989-08-27T10:23:08.460 ,4,0,0.,24.0,0.,24.0
1989-08-27T10:23:32.460 ,3,1,0.,24.0,0.,24.0
1989-08-27T10:23:56.460 ,3,0,0.,24.0,0.,24.0
1989-08-27T10:24:20.460 ,2,1,0.,24.0,0.,24.0
1989-08-27T10:24:44.460 ,2,0,0.,24.0,0.,24.0
1989-08-27T10:25:08.460 ,1,1,0.,24.0,0.,24.0
1989-08-27T10:25:32.460 ,1,0,0.,24.0,0.,24.0
1989-08-27T10:25:56.460 ,0,1,0.,24.0,0.,24.0
1989-08-27T10:26:20.460 ,0,0,0.,24.0,0.,24.0
1989-08-27T10:26:44.460 ,0,1,0.,24.0,0.,24.0
1989-08-27T10:27:08.460 ,0,0,0.,24.0,0.,24.0
1989-08-27T10:27:32.460 ,1,1,0.,24.0,0.,24.0
1989-08-27T10:27:56.460 ,1,0,0.,24.0,0.,24.0
1989-08-27T10:28:20.460 ,2,1,0.,24.0,0.,24.0
1989-08-27T10:28:44.460 ,2,0,0.,24.0,0.,24.0
1989-08-27T10:29:08.460 ,3,1,0.,24.0,0.,24.0
1989-08-27T10:29:32.460 ,3,0,0.,24.0,0.,24.0
1989-08-27T10:29:56.460 ,4,1,0.,24.0,0.,24.0
1989-08-27T10:30:20.460 ,4,0,0.,24.0,0.,24.0
1989-08-27T10:30:44.460 ,5,1,0.,24.0,0.,24.0
1989-08-27T10:31:08.460 ,5,0,0.,24.0,0.,24.0
1989-08-27T10:31:32.460 ,6,1,0.,24.0,0.,24.0
1989-08-27T10:31:56.460 ,6,0,0.,24.0,0.,24.0
1989-08-27T10:32:20.460 ,7,1,0.,24.0,0.,24.0
1989-08-27T10:32:44.460 ,7,0,0.,24.0,0.,24.0
1989-08-27T10:33:08.460 ,7,1,0.,24.0,0.,24.0
1989-08-27T10:33:32.460 ,7,0,0.,24.0,0.,24.0
1989-08-27T10:33:56.460 ,6,1,0.,24.0,0.,24.0
1989-08-27T10:34:20.460 ,6,0,0.,24.0,0.,24.0
1989-08-27T10:34:44.460 ,5,1,0.,24.0,0.,24.0
1989-08-27T10:35:08.460 ,5,0,0.,24.0,0.,24.0
1989-08-27T10:35:32.460 ,4,1,0.,24.0,0.,24.0
1989-08-27T10:35:56.460 ,0,0,0.,24.0,0.,24.0
1989-08-27T10:37:10.860 ,0,0,0.,24.0,0.,24.0
1989-08-27T10:37:32.460 ,0,0,0.,24.0,0.,24.0
1989-08-27T10:37:56.460 ,1,1,0.,24.0,0.,24.0
1989-08-27T10:38:20.460 ,1,0,0.,24.0,0.,24.0
1989-08-27T10:38:44.460 ,0,1,0.,24.0,0.,24.0
1989-08-27T10:39:08.460 ,0,0,0.,24.0,0.,24.0
1989-08-27T10:39:32.460 ,0,1,0.,24.0,0.,24.0
1989-08-27T10:39:56.460 ,0,0,0.,24.0,0.,24.0
1989-08-27T10:40:20.460 ,1,1,0.,24.0,0.,24.0
1989-08-27T10:40:44.460 ,1,0,0.,24.0,0.,24.0
1989-08-27T10:41:08.460 ,2,1,0.,24.0,0.,24.0
1989-08-27T10:41:32.460 ,2,0,0.,24.0,0.,24.0
1989-08-27T10:41:56.460 ,3,1,0.,24.0,0.,24.0
1989-08-27T10:42:20.460 ,3,0,0.,24.0,0.,24.0
1989-08-27T10:42:44.460 ,4,1,0.,24.0,0.,24.0
1989-08-27T10:43:08.460 ,4,0,0.,24.0,0.,24.0
1989-08-27T10:43:32.460 ,5,1,0.,24.0,0.,24.0
1989-08-27T10:43:56.460 ,5,0,0.,24.0,0.,24.0
1989-08-27T10:44:20.460 ,6,1,0.,24.0,0.,24.0
1989-08-27T10:44:44.460 ,6,0,0.,24.0,0.,24.0
1989-08-27T10:45:08.460 ,7,1,0.,24.0,0.,24.0
1989-08-27T10:45:32.460 ,7,0,0.,24.0,0.,24.0
1989-08-27T10:45:56.460 ,7,1,0.,24.0,0.,24.0
1989-08-27T10:46:20.460 ,7,0,0.,24.0,0.,24.0
1989-08-27T10:46:44.460 ,6,1,0.,24.0,0.,24.0
1989-08-27T10:47:08.460 ,6,0,0.,24.0,0.,24.0
1989-08-27T10:47:32.460 ,5,1,0.,24.0,0.,24.0
1989-08-27T10:47:56.460 ,5,0,0.,24.0,0.,24.0
1989-08-27T10:48:20.460 ,4,1,0.,24.0,0.,24.0
1989-08-27T10:48:44.460 ,4,0,0.,24.0,0.,24.0
1989-08-27T10:49:08.460 ,3,1,0.,24.0,0.,24.0
1989-08-27T10:49:32.460 ,3,0,0.,24.0,0.,24.0
1989-08-27T10:49:56.460 ,2,1,0.,24.0,0.,24.0
1989-08-27T10:50:20.460 ,2,0,0.,24.0,0.,24.0
1989-08-27T10:50:44.460 ,1,1,0.,24.0,0.,24.0
1989-08-27T10:51:08.460 ,1,0,0.,24.0,0.,24.0
1989-08-27T10:51:32.460 ,0,1,0.,24.0,0.,24.0
1989-08-27T10:51:56.460 ,0,0,0.,24.0,0.,24.0
1989-08-27T10:52:20.460 ,0,1,0.,24.0,0.,24.0
1989-08-27T10:52:44.460 ,0,0,0.,24.0,0.,24.0
1989-08-27T10:53:08.460 ,1,1,0.,24.0,0.,24.0
1989-08-27T10:53:32.460 ,1,0,0.,24.0,0.,24.0
1989-08-27T10:53:56.460 ,2,1,0.,24.0,0.,24.0
1989-08-27T10:54:20.460 ,2,0,0.,24.0,0.,24.0
1989-08-27T10:54:44.460 ,3,1,0.,24.0,0.,24.0
1989-08-27T10:55:08.460 ,3,0,0.,24.0,0.,24.0
1989-08-27T10:55:32.460 ,4,1,0.,24.0,0.,24.0
1989-08-27T10:55:56.460 ,4,0,0.,24.0,0.,24.0
1989-08-27T10:56:20.460 ,5,1,0.,24.0,0.,24.0
1989-08-27T10:56:44.460 ,5,0,0.,24.0,0.,24.0
1989-08-27T10:57:08.450 ,6,1,0.,24.0,0.,24.0
1989-08-27T10:57:32.450 ,6,0,0.,24.0,0.,24.0
1989-08-27T10:57:56.450 ,7,1,0.,24.0,0.,24.0
1989-08-27T10:58:20.450 ,7,0,0.,24.0,0.,24.0
1989-08-27T10:58:44.450 ,7,1,0.,24.0,0.,24.0
1989-08-27T10:59:08.450 ,7,0,0.,24.0,0.,24.0
1989-08-27T10:59:32.450 ,6,1,0.,24.0,0.,24.0
1989-08-27T10:59:56.450 ,6,0,0.,24.0,0.,24.0
1989-08-27T11:00:20.450 ,5,1,0.,24.0,0.,24.0
1989-08-27T11:00:44.460 ,5,0,0.,24.0,0.,24.0
1989-08-27T11:01:08.460 ,4,1,0.,24.0,0.,24.0
1989-08-27T11:01:32.460 ,4,0,0.,24.0,0.,24.0
1989-08-27T11:01:56.460 ,3,1,0.,24.0,0.,24.0
1989-08-27T11:02:20.460 ,3,0,0.,24.0,0.,24.0
1989-08-27T11:02:44.460 ,2,1,0.,24.0,0.,24.0
1989-08-27T11:03:08.460 ,2,0,0.,24.0,0.,24.0
1989-08-27T11:03:32.460 ,1,1,0.,24.0,0.,24.0
1989-08-27T11:03:56.460 ,1,0,0.,24.0,0.,24.0
1989-08-27T11:04:20.450 ,0,1,0.,24.0,0.,24.0
1989-08-27T11:04:44.460 ,0,0,0.,24.0,0.,24.0
1989-08-27T11:05:08.460 ,0,1,0.,24.0,0.,24.0
1989-08-27T11:05:32.460 ,0,0,0.,24.0,0.,24.0
1989-08-27T11:05:56.460 ,1,1,0.,24.0,0.,24.0
1989-08-27T11:06:20.450 ,1,0,0.,24.0,0.,24.0
1989-08-27T11:06:44.460 ,2,1,0.,24.0,0.,24.0
1989-08-27T11:07:08.460 ,2,0,0.,24.0,0.,24.0
1989-08-27T11:07:32.460 ,3,1,0.,24.0,0.,24.0
1989-08-27T11:07:56.460 ,3,0,0.,24.0,0.,24.0
1989-08-27T11:08:20.450 ,4,1,0.,24.0,0.,24.0
1989-08-27T11:08:44.460 ,4,0,0.,24.0,0.,24.0
1989-08-27T11:09:08.460 ,5,1,0.,24.0,0.,24.0
1989-08-27T11:09:32.460 ,5,0,0.,24.0,0.,24.0
1989-08-27T11:09:56.450 ,6,1,0.,24.0,0.,24.0
1989-08-27T11:10:20.450 ,6,0,0.,24.0,0.,24.0
1989-08-27T11:10:44.450 ,7,1,0.,24.0,0.,24.0
1989-08-27T11:11:08.450 ,7,0,0.,24.0,0.,24.0
1989-08-27T11:11:32.450 ,7,1,0.,24.0,0.,24.0
1989-08-27T11:11:56.450 ,7,0,0.,24.0,0.,24.0
1989-08-27T11:12:20.450 ,6,1,0.,24.0,0.,24.0
1989-08-27T11:12:44.450 ,6,0,0.,24.0,0.,24.0
1989-08-27T11:13:08.450 ,5,1,0.,24.0,0.,24.0
1989-08-27T11:13:32.450 ,5,0,0.,24.0,0.,24.0
1989-08-27T11:13:56.450 ,4,1,0.,24.0,0.,24.0
1989-08-27T11:14:20.450 ,4,0,0.,24.0,0.,24.0
1989-08-27T11:14:44.450 ,3,1,0.,24.0,0.,24.0
1989-08-27T11:15:08.450 ,3,0,0.,24.0,0.,24.0
1989-08-27T11:15:32.450 ,2,1,0.,24.0,0.,24.0
1989-08-27T11:15:56.450 ,2,0,0.,24.0,0.,24.0
1989-08-27T11:16:20.450 ,1,1,0.,24.0,0.,24.0
1989-08-27T11:16:44.450 ,1,0,0.,24.0,0.,24.0
1989-08-27T11:17:08.450 ,0,1,0.,24.0,0.,24.0
1989-08-27T11:17:32.450 ,0,0,0.,24.0,0.,24.0
1989-08-27T11:17:56.450 ,0,1,0.,24.0,0.,24.0
1989-08-27T11:18:20.450 ,0,0,0.,24.0,0.,24.0
1989-08-27T11:18:44.450 ,1,1,0.,24.0,0.,24.0
1989-08-27T11:19:08.450 ,1,0,0.,24.0,0.,24.0
1989-08-27T11:19:32.450 ,2,1,0.,24.0,0.,24.0
1989-08-27T11:19:56.450 ,2,0,0.,24.0,0.,24.0
1989-08-27T11:20:20.450 ,3,1,0.,24.0,0.,24.0
1989-08-27T11:20:44.450 ,3,0,0.,24.0,0.,24.0
1989-08-27T11:21:08.450 ,4,1,0.,24.0,0.,24.0
1989-08-27T11:21:32.450 ,4,0,0.,24.0,0.,24.0
1989-08-27T11:21:56.450 ,5,1,0.,24.0,0.,24.0
1989-08-27T11:22:20.450 ,5,0,0.,24.0,0.,24.0
1989-08-27T11:22:44.450 ,6,1,0.,24.0,0.,24.0
1989-08-27T11:23:08.450 ,6,0,0.,24.0,0.,24.0
1989-08-27T11:23:32.450 ,7,1,0.,24.0,0.,24.0
1989-08-27T11:23:56.450 ,7,0,0.,24.0,0.,24.0
1989-08-27T11:24:20.450 ,7,1,0.,24.0,0.,24.0
1989-08-27T11:24:44.450 ,7,0,0.,24.0,0.,24.0
1989-08-27T11:25:08.450 ,6,1,0.,24.0,0.,24.0
1989-08-27T11:25:32.450 ,6,0,0.,24.0,0.,24.0
1989-08-27T11:25:56.450 ,5,1,0.,24.0,0.,24.0
1989-08-27T11:26:20.450 ,5,0,0.,24.0,0.,24.0
1989-08-27T11:26:44.450 ,4,1,0.,24.0,0.,24.0
1989-08-27T11:27:08.450 ,4,0,0.,24.0,0.,24.0
1989-08-27T11:27:32.450 ,3,1,0.,24.0,0.,24.0
1989-08-27T11:27:56.450 ,3,0,0.,24.0,0.,24.0
1989-08-27T11:28:20.450 ,2,1,0.,24.0,0.,24.0
1989-08-27T11:28:44.450 ,2,0,0.,24.0,0.,24.0
1989-08-27T11:29:08.450 ,1,1,0.,24.0,0.,24.0
1989-08-27T11:29:32.450 ,1,0,0.,24.0,0.,24.0
1989-08-27T11:29:56.450 ,0,1,0.,24.0,0.,24.0
1989-08-27T11:30:20.450 ,0,0,0.,24.0,0.,24.0
1989-08-27T11:30:44.450 ,0,1,0.,24.0,0.,24.0
1989-08-27T11:31:08.450 ,0,0,0.,24.0,0.,24.0
1989-08-27T11:31:32.450 ,1,1,0.,24.0,0.,24.0
1989-08-27T11:31:56.450 ,1,0,0.,24.0,0.,24.0
1989-08-27T11:32:20.450 ,2,1,0.,24.0,0.,24.0
1989-08-27T11:32:44.450 ,2,0,0.,24.0,0.,24.0
1989-08-27T11:33:08.450 ,3,1,0.,24.0,0.,24.0
1989-08-27T11:33:32.450 ,3,0,0.,24.0,0.,24.0
1989-08-27T11:33:56.450 ,4,1,0.,24.0,0.,24.0
1989-08-27T11:34:20.450 ,4,0,0.,24.0,0.,24.0
1989-08-27T11:34:44.450 ,5,1,0.,24.0,0.,24.0
1989-08-27T11:35:08.450 ,5,0,0.,24.0,0.,24.0
1989-08-27T11:35:32.450 ,6,1,0.,24.0,0.,24.0
1989-08-27T11:35:56.450 ,6,0,0.,24.0,0.,24.0
1989-08-27T11:36:20.450 ,7,1,0.,24.0,0.,24.0
1989-08-27T11:36:44.450 ,7,0,0.,24.0,0.,24.0
1989-08-27T11:37:08.450 ,7,1,0.,24.0,0.,24.0
1989-08-27T11:37:32.450 ,7,0,0.,24.0,0.,24.0
1989-08-27T11:37:56.450 ,6,1,0.,24.0,0.,24.0
1989-08-27T11:38:20.450 ,6,0,0.,24.0,0.,24.0
1989-08-27T11:38:44.450 ,5,1,0.,24.0,0.,24.0
1989-08-27T11:39:08.450 ,5,0,0.,24.0,0.,24.0
1989-08-27T11:39:32.450 ,4,1,0.,24.0,0.,24.0
1989-08-27T11:39:56.450 ,0,0,0.,24.0,0.,24.0
1989-08-27T11:41:04.850 ,0,0,0.,24.0,0.,24.0
1989-08-27T11:41:08.450 ,2,1,0.,24.0,0.,24.0
1989-08-27T11:41:32.450 ,2,0,0.,24.0,0.,24.0
1989-08-27T11:41:56.450 ,1,1,0.,24.0,0.,24.0
1989-08-27T11:42:20.450 ,1,0,0.,24.0,0.,24.0
1989-08-27T11:42:44.450 ,0,1,0.,24.0,0.,24.0
1989-08-27T11:43:08.450 ,0,0,0.,24.0,0.,24.0
1989-08-27T11:43:32.450 ,0,1,0.,24.0,0.,24.0
1989-08-27T11:43:56.450 ,0,0,0.,24.0,0.,24.0
1989-08-27T11:44:20.450 ,1,1,0.,24.0,0.,24.0
1989-08-27T11:44:44.450 ,1,0,0.,24.0,0.,24.0
1989-08-27T11:45:08.450 ,2,1,0.,24.0,0.,24.0
1989-08-27T11:45:32.450 ,2,0,0.,24.0,0.,24.0
1989-08-27T11:45:56.450 ,3,1,0.,24.0,0.,24.0
1989-08-27T11:46:20.450 ,3,0,0.,24.0,0.,24.0
1989-08-27T11:46:44.450 ,4,1,0.,24.0,0.,24.0
1989-08-27T11:47:08.450 ,4,0,0.,24.0,0.,24.0
1989-08-27T11:47:32.450 ,5,1,0.,24.0,0.,24.0
1989-08-27T11:47:56.450 ,5,0,0.,24.0,0.,24.0
1989-08-27T11:48:20.450 ,6,1,0.,24.0,0.,24.0
1989-08-27T11:48:44.450 ,6,0,0.,24.0,0.,24.0
1989-08-27T11:49:08.450 ,7,1,0.,24.0,0.,24.0
1989-08-27T11:49:32.450 ,7,0,0.,24.0,0.,24.0
1989-08-27T11:49:56.450 ,7,1,0.,24.0,0.,24.0
1989-08-27T11:50:20.450 ,7,0,0.,24.0,0.,24.0
1989-08-27T11:50:44.450 ,6,1,0.,24.0,0.,24.0
1989-08-27T11:51:08.450 ,6,0,0.,24.0,0.,24.0
1989-08-27T11:51:32.450 ,5,1,0.,24.0,0.,24.0
1989-08-27T11:51:56.450 ,5,0,0.,24.0,0.,24.0
1989-08-27T11:52:20.450 ,4,1,0.,24.0,0.,24.0
1989-08-27T11:52:44.450 ,4,0,0.,24.0,0.,24.0
1989-08-27T11:53:08.450 ,3,1,0.,24.0,0.,24.0
1989-08-27T11:53:32.450 ,3,0,0.,24.0,0.,24.0
1989-08-27T11:53:56.450 ,2,1,0.,24.0,0.,24.0
1989-08-27T11:54:20.450 ,2,0,0.,24.0,0.,24.0
1989-08-27T11:54:44.450 ,1,1,0.,24.0,0.,24.0
1989-08-27T11:55:08.450 ,1,0,0.,24.0,0.,24.0
1989-08-27T11:55:32.450 ,0,1,0.,24.0,0.,24.0
1989-08-27T11:55:56.450 ,0,0,0.,24.0,0.,24.0
1989-08-27T11:56:20.450 ,0,1,0.,24.0,0.,24.0
1989-08-27T11:56:44.450 ,0,0,0.,24.0,0.,24.0
1989-08-27T11:57:08.450 ,1,1,0.,24.0,0.,24.0
1989-08-27T11:57:32.450 ,1,0,0.,24.0,0.,24.0
1989-08-27T11:57:56.450 ,2,1,0.,24.0,0.,24.0
1989-08-27T11:58:20.450 ,2,0,0.,24.0,0.,24.0
1989-08-27T11:58:44.450 ,3,1,0.,24.0,0.,24.0
1989-08-27T11:59:08.450 ,3,0,0.,24.0,0.,24.0
1989-08-27T11:59:32.450 ,4,1,0.,24.0,0.,24.0
1989-08-27T11:59:56.450 ,4,0,0.,24.0,0.,24.0
1989-08-27T12:00:20.450 ,5,1,0.,24.0,0.,24.0
